TimeMDT,TemperatureF,Dew PointF,Humidity,Sea Level PressureIn,VisibilityMPH,Wind Direction,Wind SpeedMPH,Gust SpeedMPH,PrecipitationIn,Events,Conditions,WindDirDegrees,DateUTC
12:56 AM,19.0,12.9,77,30.39,10.0,SE,8.1,-,N/A,,Clear,140,2013-03-10 07:56:00
1:56 AM,24.1,16.0,71,30.38,10.0,South,5.8,-,N/A,,Clear,170,2013-03-10 08:56:00
3:56 AM,21.0,14.0,74,30.37,10.0,SE,3.5,-,N/A,,Clear,130,2013-03-10 09:56:00
4:56 AM,19.0,12.9,77,30.39,10.0,SSE,4.6,-,N/A,,Clear,160,2013-03-10 10:56:00
6:56 AM,19.9,14.0,78,30.41,10.0,Calm,Calm,-,N/A,,Clear,0,2013-03-10 12:56:00
7:56 AM,17.1,10.9,77,30.43,10.0,SE,3.5,-,N/A,,Clear,130,2013-03-10 13:56:00
8:56 AM,21.0,16.0,81,30.44,10.0,SSE,5.8,-,N/A,,Clear,150,2013-03-10 14:56:00
9:56 AM,28.9,18.0,64,30.40,10.0,South,3.5,-,N/A,,Clear,180,2013-03-10 15:56:00
10:56 AM,32.0,21.9,66,30.40,10.0,North,3.5,-,N/A,,Clear,10,2013-03-10 16:56:00
11:56 AM,36.0,21.9,57,30.36,10.0,Calm,Calm,-,N/A,,Clear,0,2013-03-10 17:56:00
12:56 PM,37.9,21.9,53,30.34,10.0,Calm,Calm,-,N/A,,Clear,0,2013-03-10 18:56:00
1:56 PM,39.0,24.1,55,30.31,10.0,ENE,5.8,-,N/A,,Clear,70,2013-03-10 19:56:00
2:56 PM,43.0,23.0,45,30.22,10.0,NE,3.5,-,N/A,,Clear,50,2013-03-10 20:56:00
3:56 PM,44.1,21.0,40,30.20,10.0,East,5.8,-,N/A,,Clear,80,2013-03-10 21:56:00
4:56 PM,45.0,14.0,29,30.19,10.0,Calm,Calm,-,N/A,,Overcast,0,2013-03-10 22:56:00
5:56 PM,43.0,19.0,38,30.17,10.0,South,4.6,-,N/A,,Mostly Cloudy,180,2013-03-10 23:56:00
6:56 PM,39.0,23.0,53,30.17,10.0,ESE,3.5,-,N/A,,Mostly Cloudy,110,2013-03-11 00:56:00
7:56 PM,39.0,23.0,53,30.18,10.0,Calm,Calm,-,N/A,,Mostly Cloudy,0,2013-03-11 01:56:00
8:56 PM,34.0,28.0,79,30.18,10.0,Variable,4.6,-,N/A,,Overcast,0,2013-03-11 02:56:00
9:56 PM,36.0,26.1,67,30.14,10.0,South,3.5,-,N/A,,Overcast,170,2013-03-11 03:56:00
10:56 PM,36.0,26.1,67,30.13,10.0,SW,3.5,-,N/A,,Overcast,220,2013-03-11 04:56:00
11:56 PM,34.0,28.0,79,30.14,10.0,Calm,Calm,-,N/A,,Overcast,0,2013-03-11 05:56:00
12:56 AM,37.0,24.1,59,30.12,10.0,Calm,Calm,-,N/A,,Overcast,0,2013-03-11 06:56:00